STARLINK-2069 (47359 NORAD) Tracking and Keplerian Element Data

This shows tracking and keplerian element data for the satellite.

Feedback or suggestion? Click here.




ElementValue
Catalog47359
NameSTARLINK-2069
Epoch Orbit175
Epoch Day105.91667824
Epoch Year2021
RAAN166.7203
Inclination53.0531
Eccentricity9.27E-05
Argument of Perigee81.0028
Mean Anonmoly123.6346
Mean Motion15.06383642
Decay Rate-6.616E-05
L11 47359U 21005L 21105.91667824 -.00006616 00000-0 -42589-3 0 9990
L22 47359 53.0531 166.7203 0000927 81.0028 123.6346 15.06383642 1755

Live tracking and technical data element details for STARLINK-2069 (NORAD 47359). STARLINK-2069 can be tracked NOW for your location showing map with azimuth and elevation plus other details from your city location.

Track the satellite on the map from your city or location and see movement details for azimuth, elevation, latitude, longitude, range, height, and movement on the map or in text.







IsCatalogInMostPopularTable: catalog: 47359, numindb: 15
Update: records affected: 1



GetName: 47359 STARLINK-2069

Hit Count: updated at: Fri, 16 Apr 2021 10:54:22 GMT